Flag for U.S.A. Weather past 2 weeks in Provo, Utah, U.S.A.

Now
54 °F

Partly sunny.


Feels Like: 53 °F
Forecast: 45 / 61 °F
Wind: 5 mph from East

Location: Provo Municipal

Current Time: Oct 21, 2014 at 9:41:42 AM

Latest Report: Oct 21, 2014 at 8:53 AM


Visibility: 10 mi

Pressure: 29.96 "Hg

Humidity: 58%

Dew point: 39 °F

Location of ProvoLocation

Historic Weather in Provo — Graph

°F

Provo temperature yesterday

Maximum temperature yesterday: 75 °F (at 3:51 PM)
Minimum temperature yesterday: 39 °F (at 6:35 AM)
Average temperature yesterday: 55 °F

Past Weeks' High & Low Weather Summary

 TemperatureHumidityPressure
High75 °F (Oct 20, 3:51 PM)100% (Oct 16, 9:54 AM)30.35 "Hg (Oct 16, 9:54 AM)
Low36 °F (Oct 13, 3:35 AM)25% (Oct 15, 12:47 PM)29.89 "Hg (Oct 15, 3:51 PM)
Average52 °F59%30.08 "Hg
* Reported Oct 6 7:51 AM — Oct 21 7:50 AM, Provo, Weather by CustomWeather, © 2014

Note: Actual official high and low records may vary slightly from our data, if they occured in-between our weather recording intervals... More about our weather records

Advertising

Provo weather history for previous 24 hours

 ConditionsComfort  
Time TempWeatherWind HumidityBarometerVisibility
7:50 AM
Oct 21
57 °FThundershowers. Passing clouds.No wind51%29.94 "Hg10 mi
6:47 AM57 °FPassing clouds.5 mph51%29.94 "Hg15 mi
6:35 AM57 °FPassing clouds.8 mph55%29.94 "Hg10 mi
6:15 AM59 °FPartly cloudy.5 mph48%29.94 "Hg10 mi
5:55 AM57 °FPassing clouds.No wind51%29.94 "Hg10 mi
5:35 AM57 °FPassing clouds.7 mph51%29.94 "Hg10 mi
5:15 AM57 °FOvercast.3 mph51%29.94 "Hg10 mi
4:55 AM59 °FOvercast.6 mph48%29.93 "Hg10 mi
4:35 AM57 °FOvercast.10 mph51%29.93 "Hg10 mi
4:15 AM61 °FOvercast.15 mph45%29.93 "Hg10 mi
3:55 AM61 °FPassing clouds.14 mph45%29.93 "Hg10 mi
3:35 AM61 °FPassing clouds.13 mph45%29.94 "Hg10 mi
3:15 AM63 °FPartly cloudy.12 mph42%29.94 "Hg10 mi
2:55 AM61 °FPassing clouds.10 mph45%29.95 "Hg10 mi
2:35 AM63 °FMostly cloudy.10 mph42%29.95 "Hg10 mi
2:15 AM63 °FOvercast.10 mph42%29.95 "Hg10 mi
1:55 AM63 °FPassing clouds.13 mph42%29.95 "Hg10 mi
1:35 AM61 °FPassing clouds.12 mph52%29.95 "Hg10 mi
1:15 AM63 °FPassing clouds.13 mph45%29.95 "Hg10 mi
12:55 AM63 °FPassing clouds.15 mph42%29.95 "Hg10 mi
12:35 AM63 °FPassing clouds.17 mph42%29.95 "Hg10 mi
12:15 AM63 °FMostly cloudy.18 mph45%29.94 "Hg10 mi
11:55 PM
Oct 20
63 °FOvercast.15 mph42%29.94 "Hg10 mi
11:35 PM63 °FOvercast.15 mph42%29.94 "Hg10 mi
11:15 PM63 °FOvercast.14 mph42%29.95 "Hg10 mi
10:55 PM63 °FPassing clouds.16 mph45%29.95 "Hg10 mi
10:35 PM63 °FPassing clouds.13 mph45%29.95 "Hg10 mi
10:15 PM63 °FClear.13 mph42%29.95 "Hg10 mi
9:55 PM63 °FClear.14 mph42%29.95 "Hg10 mi
9:15 PM64 °FClear.14 mph46%29.95 "Hg10 mi
8:55 PM66 °FPassing clouds.14 mph40%29.95 "Hg10 mi
7:55 PM66 °FPassing clouds.9 mph49%29.95 "Hg15 mi
6:55 PM61 °FScattered clouds.No wind52%29.94 "Hg15 mi
5:48 PM72 °FScattered clouds.No wind38%29.96 "Hg15 mi
4:48 PM75 °FScattered clouds.No wind25%29.97 "Hg15 mi
3:51 PM75 °FScattered clouds.No wind25%29.99 "Hg15 mi
2:57 PM73 °FPassing clouds.No wind29%30.00 "Hg15 mi
1:59 PM72 °FPassing clouds.No wind36%30.02 "Hg15 mi
12:56 PM66 °FPassing clouds.No wind43%30.06 "Hg15 mi
11:48 AM66 °FPassing clouds.5 mph35%30.09 "Hg15 mi
10:57 AM61 °FPassing clouds.No wind42%30.11 "Hg15 mi
9:59 AM55 °FScattered clouds.No wind51%30.11 "Hg15 mi
Weather by CustomWeather, © 2014

See weather overviewHow to use our weather pages